#timestamp,LO_Frequency,Hit,StdDev 
1677902415.1,286047003.9,N
1677902416.0,286047003.9,N
1677902435.8,286047003.4,N
1677902455.7,286047003.5,N
1677902475.5,286047004.3,N
1677902495.3,286047001.4,N
1677902515.2,286047003.9,N
1677902535.0,286047001.6,N
1677902535.9,286047001.6,N
1677902555.8,286047001.3,N
1677902575.6,286047001.4,N
1677902595.4,286047001.5,N
1677902615.3,286047001.3,N
1677902635.1,286047001.8,N
1677902655.8,286047003.2,N
1677902675.7,286047003.4,N
1677902695.5,286047005.7,N
1677902715.4,286047002.1,N
1677902735.2,286047001.9,N
1677902755.0,286047001.7,N
1677902755.9,286047001.7,N
1677902775.8,286047002.0,N
1677902795.6,286047002.4,N
1677902815.4,286046999.7,N
1677902835.3,286047002.1,N
1677902855.1,286047003.9,N
1677902875.9,286047004.0,N
1677902895.7,286047003.0,N
1677902915.5,286047005.8,Y
1677902935.4,286047001.9,P
1677902955.2,286047002.0,P
1677902975.0,286047003.2,P
1677902975.9,286047003.2,Y
1677902995.8,286046998.1,P
1677903015.6,286046999.7,N
1677903035.5,286047000.1,N
1677903055.3,286047001.2,N
1677903075.1,286047001.1,N
1677903095.9,286046999.3,N
1677903115.7,286046999.5,N
1677903135.5,286046996.5,N
1677903155.4,286046998.1,N
1677903175.2,286046996.9,N
1677903195.1,286046996.5,N
1677903196.0,286046996.5,N
1677903215.8,286046998.1,N
1677903235.6,286046998.1,N
1677903255.5,286047001.2,N
1677903275.3,286046998.5,N
1677903295.1,286046999.1,N
1677903315.9,286046998.7,N
1677903335.7,286046998.6,N
1677903355.6,286046999.4,N
1677903375.4,286046998.3,N
1677903395.2,286046998.7,N
1677903415.1,286046999.0,N
1677903416.0,286046999.0,N
1677903435.8,286046998.8,N
1677903455.6,286046998.7,N
1677903475.5,286047000.1,N
1677903495.3,286047000.1,N
1677903515.2,286047000.8,N
1677903535.9,286047000.1,N
1677903555.7,286047000.5,N
1677903575.6,286047000.2,N
1677903595.4,286047001.1,N
1677903615.2,286047001.2,N
1677903635.1,286047000.1,N
1677903636.0,286047000.1,N
1677903655.8,286047000.1,N
1677903675.6,286047002.6,N
1677903695.5,286047002.1,N
1677903715.3,286047002.2,N
1677903735.2,286047002.7,N
1677903755.9,286047000.5,N
1677903775.7,286047000.5,N
1677903795.6,286047000.9,N
1677903815.4,286047002.0,N
1677903835.2,286047001.8,N
1677903855.1,286047001.4,N
1677903856.0,286047001.4,N
1677903875.8,286047001.8,N
1677903895.7,286047000.6,N
1677903915.5,286047000.4,N
1677903935.3,286047001.0,N
1677903955.2,286046999.3,N
1677903975.0,286046998.3,N
1677903975.9,286046998.3,N
1677903995.7,286047000.9,N
1677904015.6,286047000.6,N
1677904035.4,286046999.8,N
1677904055.3,286047002.8,N
1677904075.1,286047000.3,N
1677904076.0,286047000.3,N
1677904095.8,286047002.8,N
1677904115.7,286046999.7,N
1677904135.5,286047002.0,N
1677904155.4,286046999.9,N
1677904175.2,286047002.1,N
1677904195.0,286047001.9,N
1677904195.9,286047001.9,N
1677904215.8,286047002.3,N
1677904235.6,286047000.0,N
1677904255.4,286047001.3,N
1677904275.3,286047001.6,N
1677904295.1,286047001.7,N
1677904315.9,286047000.3,N
1677904335.7,286047002.6,N
1677904355.5,286047002.5,N
1677904375.4,286047002.3,N
1677904395.2,286047002.6,N
1677904415.0,286047002.8,N
1677904415.9,286047002.8,N
1677904435.8,286047000.5,N
1677904455.6,286047002.4,N
1677904475.5,286047001.7,N
1677904495.3,286047003.1,N
1677904515.1,286047004.2,Y
1677904535.9,286047002.6,P
1677904555.7,286046999.8,N
1677904575.5,286047002.6,N
1677904595.4,286047001.3,N
1677904615.2,286047003.1,N
1677904635.1,286047003.9,Y
1677904636.0,286047003.9,P
1677904655.8,286046999.7,N
1677904675.6,286047002.8,N
1677904695.5,286047000.1,N
1677904715.3,286047000.0,N
1677904735.2,286047000.6,N
1677904785.9,286047001.2,E
1677904795.8,286046998.2,N
1677904815.7,286046996.5,P
1677904835.5,286046998.9,N
1677904855.4,286047000.0,N
1677904875.2,286047001.2,N
1677904895.0,286047001.2,N
1677904895.9,286047001.2,N
1677904915.8,286046998.3,N
1677904935.6,286046998.6,N
1677904955.4,286046998.2,N
1677904975.3,286046999.1,N
1677904995.1,286046999.3,N
1677905015.9,286046999.5,N
1677905035.7,286046998.9,N
1677905055.5,286046999.0,N
1677905075.4,286046998.8,N
1677905095.2,286046999.2,N
1677905115.0,286046998.7,N
1677905115.9,286046998.7,N
1677905135.8,286047000.7,N
1677905155.6,286046998.5,N
1677905175.5,286047001.0,N
1677905195.3,286047000.1,N
1677905215.1,286046999.9,N
1677905235.9,286047000.8,N
1677905255.7,286046998.7,N
1677905275.5,286047000.5,N
1677905295.4,286046999.8,N
1677905315.2,286047000.8,N
1677905335.1,286046996.6,Y
1677905336.0,286046996.6,P
1677905355.8,286046998.8,N
1677905375.6,286046998.4,N
1677905395.5,286046999.3,N
1677905415.3,286046998.8,N
1677905435.1,286047001.2,N
1677905455.9,286046998.9,N
1677905475.7,286046998.9,N
1677905495.6,286046998.8,N
1677905515.4,286046996.7,Y
1677905535.2,286047000.7,P
1677905555.1,286047003.9,P
1677905556.0,286047003.9,N
1677905575.8,286047001.6,N
1677905595.6,286047000.1,N
1677905615.5,286047002.3,N
1677905635.3,286047002.8,N
1677905655.2,286047001.5,N
1677905675.9,286047004.0,N
1677905695.7,286047004.4,N
1677905715.6,286047001.5,N
1677905735.4,286047000.0,N
1677905755.2,286047001.8,N
1677905775.1,286047004.2,N
1677905776.0,286047004.2,N
1677905795.8,286047003.8,N
1677905815.7,286047001.7,N
1677905835.5,286047001.3,N
1677905855.3,286047001.6,N
1677905875.2,286047004.3,N
1677905895.0,286047001.6,N
1677905895.9,286047001.6,N
1677905915.7,286047001.4,N
1677905935.6,286047003.9,N
1677905955.4,286047003.9,N
1677905975.3,286047001.3,N
1677905995.1,286047002.0,N
1677905996.0,286047002.0,N
